Content
SEND FEEDBACK

Daily
Averages
Monthly
Summary
United States of America

CARSON CITY, NEVADA


Home > North America > United States > Nevada
Elevation: 4742 feet     Latitude: 39 09N     Longitude: 119 46W

WEATHER
 
SELECT A DAY
Number of Records: 92,411;   Date Range: 7/14/10 - 8/19/14
 
SHARE

PRINT THIS DATA

[ ← Previous Day ]
WEATHER ALMANAC - MARCH 8, 2013
[ Next Day → ]
[ °C ]   °F
Weather ElementAverageHighLow
Temperature36.9 °F44.6 °F (2:35 pm)30.2 °F (12:55 am)
Dewpoint26.5 °F30.2 °F (1:55 am)21.2 °F (2:15 pm)
Humidity68.3 %93 % (12:55 am)39 % (2:55 pm)
Barometer29.86 in29.98 in (11:35 pm)29.82 in (1:55 pm)
Wind Speed2.2 mph6.9 mph (11:55 am)
Weather ElementAverage
Visibility9.9 mi
Wind DirectionESE (105.8 °)

Weather ElementTotal
Precipitation---
Heating Degree Days27.6 (Base 65)
Averaged from 67 records on March 8, 2013
WEATHER CONDITIONS BREAKOUT
WIND DIRECTION BREAKOUT
WEATHER BY HOUR - MARCH 8, 2013
[ °C ]   °F
Local TimeTemperatureDewpointHumidityBarometerVisibilityWind DirectionWind SpeedGust SpeedPrecipitationEventsConditions
12:35 AM32.0 °F28.4 °F87 %29.86 in10.0 miCalmMostly Cloudy
12:55 AM30.2 °F28.4 °F93 %29.86 in10.0 miCalmMostly Cloudy
1:15 AM32.0 °F28.4 °F87 %29.86 in10.0 miCalmOvercast
1:55 AM32.0 °F30.2 °F93 %29.86 in8.0 miCalmOvercast
2:15 AM32.0 °F30.2 °F93 %29.85 in10.0 miWNW (290°)3.5 mphOvercast
2:35 AM32.0 °F30.2 °F93 %29.85 in10.0 miCalmOvercast
2:55 AM32.0 °F30.2 °F93 %29.84 in10.0 miCalmOvercast
3:15 AM32.0 °F30.2 °F93 %29.83 in9.0 miSW (220°)3.5 mphOvercast
3:55 AM32.0 °F30.2 °F93 %29.83 in10.0 miCalmOvercast
4:35 AM32.0 °F28.4 °F87 %29.83 in10.0 miCalmOvercast
4:55 AM32.0 °F28.4 °F87 %29.83 in10.0 miCalmOvercast
5:15 AM32.0 °F28.4 °F87 %29.83 in10.0 miCalmOvercast
5:35 AM32.0 °F28.4 °F87 %29.83 in10.0 miCalmOvercast
5:55 AM32.0 °F28.4 °F87 %29.83 in10.0 miCalmOvercast
6:15 AM32.0 °F28.4 °F87 %29.83 in10.0 miCalmOvercast
6:35 AM32.0 °F28.4 °F87 %29.84 in10.0 miCalmOvercast
7:15 AM32.0 °F28.4 °F87 %29.85 in10.0 miCalmOvercast
7:35 AM32.0 °F28.4 °F87 %29.85 in10.0 miCalmOvercast
7:55 AM32.0 °F28.4 °F87 %29.85 in9.0 miSSW (200°)4.6 mphOvercast
8:15 AM32.0 °F30.2 °F93 %29.86 in10.0 miCalmOvercast
8:35 AM32.0 °F28.4 °F87 %29.86 in10.0 miCalmOvercast
8:55 AM35.6 °F30.2 °F81 %29.86 in10.0 miCalmOvercast
9:15 AM35.6 °F28.4 °F75 %29.86 in10.0 miCalmOvercast
9:35 AM35.6 °F28.4 °F75 %29.86 in10.0 miCalmOvercast
9:55 AM37.4 °F28.4 °F70 %29.86 in10.0 miCalmOvercast
10:15 AM37.4 °F26.6 °F65 %29.86 in10.0 miCalmOvercast
10:35 AM39.2 °F28.4 °F65 %29.86 in10.0 miENE (60°)3.5 mphOvercast
10:55 AM39.2 °F28.4 °F65 %29.86 in10.0 miCalmOvercast
11:15 AM39.2 °F26.6 °F61 %29.85 in10.0 miCalmOvercast
11:35 AM39.2 °F26.6 °F61 %29.85 in10.0 miWNW (290°)4.6 mphOvercast
11:55 AM39.2 °F26.6 °F61 %29.85 in10.0 miNNW (340°)6.9 mphOvercast
12:15 PM41.0 °F26.6 °F57 %29.84 in10.0 miCalmOvercast
12:35 PM41.0 °F24.8 °F53 %29.84 in10.0 miSW (220°)3.5 mphOvercast
12:55 PM42.8 °F24.8 °F49 %29.83 in10.0 miWest (280°)4.6 mphOvercast
1:15 PM41.0 °F24.8 °F53 %29.83 in10.0 miNW (310°)5.8 mphOvercast
1:35 PM41.0 °F23.0 °F49 %29.83 in10.0 miNorth (350°)5.8 mphOvercast
1:55 PM42.8 °F23.0 °F46 %29.82 in10.0 miNorth (360°)6.9 mphOvercast
2:15 PM42.8 °F21.2 °F42 %29.82 in10.0 miWest (260°)4.6 mphOvercast
2:35 PM44.6 °F23.0 °F43 %29.82 in10.0 miEast (100°)5.8 mphOvercast
2:55 PM44.6 °F21.2 °F39 %29.82 in10.0 miCalmOvercast
3:15 PM44.6 °F23.0 °F43 %29.82 in10.0 miENE (60°)6.9 mphThunderstormOvercast
3:35 PM44.6 °F23.0 °F43 %29.82 in10.0 miEast (80°)6.9 mphOvercast
3:55 PM44.6 °F23.0 °F43 %29.82 in10.0 miENE (60°)3.5 mphThunderstormOvercast
4:15 PM44.6 °F23.0 °F43 %29.83 in10.0 miEast (80°)4.6 mphOvercast
4:35 PM42.8 °F23.0 °F46 %29.83 in10.0 miWNW (290°)6.9 mphOvercast
4:55 PM42.8 °F23.0 °F46 %29.83 in10.0 miNW (320°)3.5 mphOvercast
5:15 PM41.0 °F23.0 °F49 %29.84 in10.0 miNorth (360°)4.6 mphMostly Cloudy
5:35 PM41.0 °F24.8 °F53 %29.84 in10.0 miNorth (360°)4.6 mphClear
5:55 PM39.2 °F24.8 °F56 %29.85 in10.0 miNorth (360°)5.8 mphClear
6:15 PM39.2 °F24.8 °F56 %29.86 in10.0 miNorth (350°)6.9 mphClear
6:35 PM37.4 °F24.8 °F60 %29.86 in10.0 miNorth (360°)4.6 mphMostly Cloudy
6:55 PM37.4 °F24.8 °F60 %29.87 in10.0 miNorth (350°)6.9 mphOvercast
7:15 PM37.4 °F24.8 °F60 %29.88 in10.0 miNNW (340°)4.6 mphOvercast
7:35 PM37.4 °F24.8 °F60 %29.89 in10.0 miCalmOvercast
7:55 PM37.4 °F24.8 °F60 %29.90 in10.0 miCalmOvercast
8:15 PM37.4 °F24.8 °F60 %29.91 in10.0 miCalmOvercast
8:35 PM35.6 °F24.8 °F65 %29.91 in10.0 miCalmOvercast
8:55 PM37.4 °F26.6 °F65 %29.93 in10.0 miCalmMostly Cloudy
9:15 PM35.6 °F26.6 °F70 %29.94 in10.0 miCalmMostly Cloudy
9:35 PM37.4 °F26.6 °F65 %29.94 in10.0 miWNW (300°)3.5 mphOvercast
9:55 PM37.4 °F26.6 °F65 %29.95 in10.0 miCalmOvercast
10:15 PM35.6 °F26.6 °F70 %29.96 in10.0 miCalmOvercast
10:35 PM35.6 °F26.6 °F70 %29.96 in10.0 miCalmOvercast
10:55 PM35.6 °F26.6 °F70 %29.97 in10.0 miCalmOvercast
11:15 PM35.6 °F26.6 °F70 %29.97 in10.0 miENE (60°)5.8 mphOvercast
11:35 PM35.6 °F26.6 °F70 %29.98 in10.0 miEast (80°)6.9 mphOvercast
11:55 PM35.6 °F26.6 °F70 %29.98 in10.0 miCalmOvercast
Hourly data recorded from KCXP, located miles away from Carson City, Nevada







STORIES FROM OUR PARTNERS